Troy, AL

8:29 PM CDT on April 26, 2018 (GMT -0500)
Troy Municipal

Weather History for KTOI - September, 2014

Change the Weather History Date:

Monday, September 1, 2014

  Actual Average Record
Temperature  
Mean Temperature 83 °F 79 °F  
Max Temperature 95 °F 90 °F 96 °F (2011)
Min Temperature 70 °F 68 °F 62 °F (1999)
Cooling Degree Days 18 14  
Month to date cooling degree days 18 14  
Year to date cooling degree days 1730 1648  
Growing Degree Days 32 (Base 50)    
Moisture  
Dew Point 71 °F    
Average Humidity 69    
Maximum Humidity 97    
Minimum Humidity 41    
Precipitation  
Precipitation 0.00 in 0.13 in 0.49 in (2001)
Month to date precipitation 0.00 0.13  
Year to date precipitation 38.00 38.08  
Sea Level Pressure  
Sea Level Pressure 30.09 in    
Wind  
Wind Speed 3 mph (East)    
Max Wind Speed 12 mph    
Max Gust Speed 15 mph    
Visibility 10 miles    
Events      
T = Trace of Precipitation, MM = Missing Value Source: NWS Daily Summary

Daily Weather History Graph

Daily Weather History Graph

Search for Another Location

Airport or City:

Astronomy

Sep. 01, 2014 Rise Set
Actual Time 6:19 AM CDT 7:07 PM CDT
Civil Twilight 5:54 AM CDT 7:32 PM CDT
Nautical Twilight 5:25 AM CDT 8:02 PM CDT
Astronomical Twilight 4:55 AM CDT 8:32 PM CDT
Moon 12:40 PM CDT (9/1) 11:33 PM CDT (9/1)
Length of Visible Light 13h 38m
Length of Day
12h 48m
Waxing Crescent, 42% of the Moon is Illuminated
Sep 1
Waxing Crescent
Sep 2
First Quarter
Sep 8
Full
Sep 15
Last Quarter
Sep 24
New

Hourly Weather History & Observations

Time (CDT) Temp. Heat Index Dew Point Humidity Pressure Visibility Wind Dir Wind Speed Gust Speed Precip Events Conditions
12:53 AM 75.0 °F - 71.1 °F 87% 30.08 in 10.0 mi Calm Calm - N/A   Clear
1:53 AM 73.9 °F - 71.1 °F 91% 30.07 in 10.0 mi Calm Calm - N/A   Clear
2:53 AM 73.0 °F - 70.0 °F 90% 30.06 in 10.0 mi Calm Calm - N/A   Clear
3:53 AM 73.0 °F - 70.0 °F 90% 30.06 in 10.0 mi Calm Calm - N/A   Clear
4:53 AM 73.0 °F - 70.0 °F 90% 30.07 in 10.0 mi Calm Calm - N/A   Clear
5:53 AM 70.0 °F - 68.0 °F 93% 30.09 in 8.0 mi Calm Calm - N/A   Clear
6:53 AM 73.0 °F - 70.0 °F 90% 30.11 in 10.0 mi NE 4.6 mph - N/A   Clear
7:07 AM 73.0 °F - 70.0 °F 90% 30.12 in 10.0 mi NE 3.5 mph - N/A   Scattered Clouds
7:15 AM 73.9 °F - 70.0 °F 87% 30.13 in 10.0 mi Calm Calm - N/A   Mostly Cloudy
7:37 AM 75.0 °F - 71.1 °F 87% 30.13 in 10.0 mi Variable 3.5 mph - N/A   Scattered Clouds
7:49 AM 75.2 °F - 71.6 °F 89% 30.13 in 10.0 mi East 3.5 mph - N/A   Mostly Cloudy
7:53 AM 75.9 °F - 71.1 °F 85% 30.12 in 10.0 mi ENE 4.6 mph - N/A   Scattered Clouds
8:08 AM 77.0 °F - 72.0 °F 84% 30.13 in 10.0 mi ENE 3.5 mph - N/A   Mostly Cloudy
8:17 AM 77.0 °F - 72.0 °F 84% 30.13 in 10.0 mi Calm Calm - N/A   Scattered Clouds
8:24 AM 78.1 °F - 72.0 °F 81% 30.14 in 10.0 mi Calm Calm - N/A   Mostly Cloudy
8:36 AM 79.0 °F - 73.0 °F 82% 30.14 in 10.0 mi NE 3.5 mph - N/A   Scattered Clouds
8:53 AM 81.0 °F 85.8 °F 73.0 °F 77% 30.12 in 10.0 mi North 3.5 mph - N/A   Clear
9:02 AM 82.0 °F 87.9 °F 73.9 °F 76% 30.14 in 10.0 mi Calm Calm - N/A   Scattered Clouds
9:53 AM 86.0 °F 95.1 °F 75.0 °F 70% 30.12 in 10.0 mi Calm Calm - N/A   Clear
10:53 AM 90.0 °F 97.9 °F 73.0 °F 57% 30.12 in 10.0 mi Variable 4.6 mph - N/A   Clear
11:53 AM 91.9 °F 97.4 °F 70.0 °F 48% 30.10 in 10.0 mi Variable 6.9 mph - N/A   Clear
12:53 PM 93.0 °F 97.4 °F 68.0 °F 44% 30.09 in 10.0 mi Variable 4.6 mph - N/A   Clear
1:53 PM 93.0 °F 96.4 °F 66.9 °F 42% 30.08 in 10.0 mi SSW 9.2 mph - N/A   Clear
2:53 PM 93.9 °F 99.1 °F 69.1 °F 44% 30.06 in 10.0 mi South 5.8 mph - N/A   Partly Cloudy
3:53 PM 93.9 °F 99.1 °F 69.1 °F 44% 30.03 in 10.0 mi North - - N/A   Partly Cloudy
4:53 PM 93.0 °F 97.9 °F 69.1 °F 45% 30.02 in 10.0 mi SW 8.1 mph - N/A   Scattered Clouds
5:53 PM 91.9 °F 96.9 °F 69.1 °F 47% 30.02 in 10.0 mi West 4.6 mph - N/A   Scattered Clouds
6:53 PM 84.9 °F 92.1 °F 73.9 °F 69% 30.03 in 10.0 mi SSW 6.9 mph - N/A   Clear
7:53 PM 82.0 °F 87.9 °F 73.9 °F 76% 30.05 in 10.0 mi SSW 3.5 mph - N/A   Clear
8:53 PM 81.0 °F 85.8 °F 73.0 °F 77% 30.08 in 10.0 mi Calm Calm - N/A   Clear
9:53 PM 78.1 °F - 73.9 °F 87% 30.09 in 10.0 mi Calm Calm - N/A   Clear
10:53 PM 77.0 °F - 73.0 °F 88% 30.07 in 10.0 mi Calm Calm - N/A   Clear
11:53 PM 75.9 °F - 72.0 °F 87% 30.07 in 10.0 mi Calm Calm - N/A   Clear